Green Bay, WI

7:57 AM CDT on August 26, 2016 (GMT -0500)
Austin Straubel International

Weather History for KGRB - August, 2014

Change the Weather History Date:

Monday, August 18, 2014

  Actual Average Record
Temperature  
Mean Temperature 65 °F 67 °F  
Max Temperature 77 °F 78 °F 97 °F (1955)
Min Temperature 52 °F 57 °F 41 °F (1963)
Degree Days  
Heating Degree Days 0 1  
Month to date heating degree days 12 18  
Since 1 June heating degree days 58 133  
Since 1 July heating degree days 27 41  
Cooling Degree Days 0 3  
Month to date cooling degree days 56 72  
Year to date cooling degree days 277 323  
Since 1 June cooling degree days 261 305  
Growing Degree Days 14 (Base 50)    
Moisture  
Dew Point 62 °F    
Average Humidity 90    
Maximum Humidity 100    
Minimum Humidity 79    
Precipitation  
Precipitation 0.48 in 0.11 in 1.66 in (2005)
Month to date precipitation 2.15 2.04  
Year to date precipitation 18.07 19.07  
Snow  
Snow 0.00 in 0.00 in 0.00 in ()
Month to date snowfall 0.0 0.0  
Since 1 June snowfall 0.0 0.0  
Since 1 July snowfall 0.0 0.0  
Snow Depth 0.00 in    
Sea Level Pressure  
Sea Level Pressure 29.83 in    
Wind  
Wind Speed 6 mph (South)    
Max Wind Speed 23 mph    
Max Gust Speed 28 mph    
Visibility 8 miles    
Events Rain , Thunderstorm    
T = Trace of Precipitation, MM = Missing Value Source: NWS Daily Summary

Daily Weather History Graph

Daily Weather History Graph

Search for Another Location

Airport or City:

Trip Planner

Search our weather history database for the weather conditions in past years. The results will help you decide how hot, cold, wet, or windy it might be!

Date:

Astronomy

Aug. 18, 2014 Rise Set
Actual Time 5:58 AM CDT 7:53 PM CDT
Civil Twilight 5:27 AM CDT 8:24 PM CDT
Nautical Twilight 4:49 AM CDT 9:02 PM CDT
Astronomical Twilight 4:07 AM CDT 9:43 PM CDT
Moon 12:02 AM CDT (8/18) 2:59 PM CDT (8/18)
Length of Visible Light 14h 56m
Length of Day
13h 54m
Last Quarter, 38% of the Moon is Illuminated
Aug 18
Last Quarter
Aug 25
New
Sep 2
First Quarter
Sep 8
Full
Sep 15
Last Quarter

Hourly Weather History & Observations

Time (CDT) Temp. Dew Point Humidity Pressure Visibility Wind Dir Wind Speed Gust Speed Precip Events Conditions
12:53 AM 54.0 °F 53.1 °F 97% 29.98 in 10.0 mi Calm Calm - N/A   Clear
1:53 AM 53.6 °F 51.8 °F 94% 29.94 in 9.0 mi NW 4.6 mph - N/A   Clear
2:53 AM 53.1 °F 52.0 °F 96% 29.93 in 8.0 mi Calm Calm - N/A   Clear
3:53 AM 55.0 °F 54.0 °F 96% 29.94 in 8.0 mi WNW 3.5 mph - N/A   Overcast
4:53 AM 57.0 °F 55.0 °F 93% 29.93 in 6.0 mi North 3.5 mph - N/A   Overcast
5:53 AM 57.0 °F 55.9 °F 96% 29.93 in 10.0 mi Calm Calm - N/A   Overcast
6:53 AM 57.9 °F 57.0 °F 97% 29.91 in 9.0 mi Calm Calm - N/A   Overcast
7:53 AM 60.1 °F 57.9 °F 93% 29.91 in 9.0 mi Calm Calm - N/A   Mostly Cloudy
8:40 AM 63.0 °F 60.1 °F 90% 29.90 in 10.0 mi SE 3.5 mph - N/A   Overcast
8:53 AM 62.1 °F 60.1 °F 93% 29.90 in 7.0 mi South 3.5 mph - 0.00 in Rain Light Rain
9:29 AM 63.0 °F 60.1 °F 90% 29.89 in 10.0 mi South 4.6 mph - 0.02 in   Overcast
9:53 AM 62.1 °F 60.1 °F 93% 29.90 in 7.0 mi SSW 4.6 mph - 0.02 in Rain Light Rain
10:17 AM 62.1 °F 60.1 °F 93% 29.90 in 4.0 mi Calm Calm - 0.00 in Rain Light Rain
10:33 AM 62.1 °F 61.0 °F 96% 29.89 in 2.5 mi SE 3.5 mph - 0.07 in Rain Rain
10:35 AM 62.1 °F 61.0 °F 96% 29.89 in 4.0 mi ESE 4.6 mph - 0.07 in Rain Light Rain
10:53 AM 63.0 °F 61.0 °F 93% 29.89 in 7.0 mi SE 6.9 mph - 0.07 in Rain Light Rain
11:53 AM 64.9 °F 63.0 °F 93% 29.86 in 8.0 mi ESE 5.8 mph - 0.00 in   Overcast
12:53 PM 68.0 °F 64.0 °F 87% 29.84 in 10.0 mi SSE 9.2 mph - N/A   Overcast
1:00 PM 69.1 °F 64.0 °F 84% 29.84 in 10.0 mi SSE 8.1 mph - N/A   Overcast
1:53 PM 73.9 °F 66.9 °F 79% 29.82 in 10.0 mi South 10.4 mph 17.3 mph N/A   Scattered Clouds
2:53 PM 75.9 °F 68.0 °F 76% 29.78 in 10.0 mi SSE 8.1 mph - N/A   Mostly Cloudy
3:53 PM 75.9 °F 69.1 °F 79% 29.76 in 9.0 mi South 5.8 mph - N/A   Overcast
4:19 PM 73.9 °F 68.0 °F 82% 29.77 in 10.0 mi SE 8.1 mph - N/A Thunderstorm Overcast
4:34 PM 73.0 °F 68.0 °F 84% 29.76 in 7.0 mi South 5.8 mph - 0.00 in Rain Light Rain
4:51 PM 71.6 °F 69.8 °F 94% 29.76 in 6.0 mi SSE 11.5 mph - 0.08 in Rain , Thunderstorm Light Rain
4:53 PM 72.0 °F 69.1 °F 91% 29.76 in 6.0 mi SSE 11.5 mph - 0.08 in Rain , Thunderstorm Light Rain
5:13 PM 71.1 °F 69.1 °F 93% 29.78 in 3.0 mi South 21.9 mph 28.8 mph 0.02 in Rain , Thunderstorm Heavy Thunderstorms and Rain
5:32 PM 69.1 °F 66.0 °F 90% 29.74 in 7.0 mi South 13.8 mph - 0.07 in Rain , Thunderstorm Rain
5:53 PM 69.1 °F 66.9 °F 93% 29.73 in 10.0 mi Calm Calm - 0.08 in Rain , Thunderstorm Light Rain
6:12 PM 68.0 °F 66.0 °F 93% 29.74 in 7.0 mi SW 5.8 mph - 0.02 in Rain Light Rain
6:53 PM 66.9 °F 64.9 °F 93% 29.74 in 10.0 mi SW 6.9 mph - 0.02 in   Partly Cloudy
7:38 PM 66.9 °F 64.9 °F 93% 29.76 in 8.0 mi WSW 4.6 mph - 0.01 in Rain , Thunderstorm Light Rain
7:53 PM 66.0 °F 64.9 °F 96% 29.77 in 7.0 mi South 6.9 mph - 0.03 in Rain Rain
8:27 PM 66.0 °F 64.9 °F 96% 29.71 in 8.0 mi SSE 13.8 mph - 0.07 in Rain , Thunderstorm Rain
8:53 PM 66.0 °F 64.9 °F 96% 29.69 in 9.0 mi SE 12.7 mph - 0.11 in Rain Light Rain
9:21 PM 66.9 °F 64.9 °F 93% 29.73 in 10.0 mi SSW 13.8 mph 21.9 mph 0.03 in Rain Light Rain
9:53 PM 66.0 °F 64.9 °F 96% 29.71 in 10.0 mi South 9.2 mph - 0.03 in   Partly Cloudy
10:53 PM 64.4 °F 62.6 °F 94% 29.71 in 10.0 mi South 9.2 mph - N/A   Clear
11:53 PM 64.0 °F 63.0 °F 96% 29.70 in 10.0 mi South 5.8 mph - N/A   Partly Cloudy